Wetbulb
50.86 49.86 50.25 50.72 51.82 52.46 54.33 54.64 44.31 59.35 60.32 44.82 45.38 41.55 48.54 47.28 49.04 51.82 50.70 49.56 47.64 46.17 45.79 44.65 44.29 43.78 45.55 48.67 47.89 43.03 43.40 41.33 33.47 39.03 43.94 45.73 43.06 41.63 41.40 29.39 31.56 31.93 29.04 30.07
50.85 49.90 50.12 50.49 51.84 51.97 56.60 50.33 51.64 58.90 58.57 38.41 40.70 47.11 49.61 50.03 48.52 48.63 48.88 47.88 49.60 49.14 45.77 41.81 45.48 45.37 48.84 49.37 46.67 43.39 43.94 38.57 29.99 35.63 40.45 44.25 40.22 41.92 41.95 40.65 33.63 30.08 23.84 28.25
50.31 50.06 49.80 50.08 51.73 52.34 54.66 52.86 43.17 50.56 52.06 51.18 47.14 46.20 46.15 47.02 50.96 50.18 50.66 49.10 49.65 47.28 44.98 47.43 44.01 44.35 48.56 48.90 46.58 45.39 45.67 41.48 35.94 29.80 35.30 38.76 36.00 38.92 39.56 37.96 28.27 30.12 31.31 35.45
50.21 49.98 49.86 51.02 51.68 51.94 54.88 54.05 47.55 48.00 40.63 43.80 47.19 47.52 47.72 46.55 46.11 50.17 50.44 47.68 48.13 46.15 40.10 43.69 43.45 45.59 45.99 47.75 45.69 45.93 44.33 36.32 39.89 40.40 40.18 39.89 38.26 37.67 37.57 35.73 36.12 29.63 33.87 36.97
49.67 49.59 49.62 51.18 51.22 51.31 53.92 52.50 50.88 49.63 46.01 47.30 46.96 45.05 45.70 46.66 47.90 47.91 46.74 45.92 47.73 47.37 43.24 44.56 42.50 45.41 43.94 43.25 44.95 43.97 44.95 35.25 35.28 32.77 39.94 38.97 35.54 37.43 38.13 38.55 38.83 37.85 37.96 36.61
49.57 49.38 50.25 48.50 49.33 52.17 54.65 54.34 55.42 52.37 45.93 45.30 44.66 44.68 47.57 48.28 49.00 49.35 50.84 48.25 45.93 42.12 45.88 46.92 46.98 46.85 45.94 46.62 43.64 42.09 41.90 34.79 30.81 28.28 35.51 32.89 27.74 35.08 38.26 38.81 39.88 38.67 32.83 38.33
49.56 49.20 49.80 48.63 48.64 51.95 57.54 56.29 55.64 45.89 40.17 45.62 46.50 49.56 49.52 49.09 48.77 46.56 49.39 49.81 45.67 48.13 50.04 47.70 46.41 44.55 44.08 46.32 44.67 47.21 36.90 34.33 31.87 24.06 28.49 17.70 37.13 42.17 42.19 40.12 40.76 41.26 41.44 41.59
49.24 50.24 50.69 50.59 50.43 51.47 56.41 56.07 55.55 46.06 36.07 47.72 48.05 48.25 48.07 48.67 48.99 47.45 47.97 49.49 50.23 50.38 48.82 38.59 33.02 32.91 31.26 37.41 43.20 43.03 44.43 33.47 25.92 27.23 25.74 31.75 37.10 41.24 39.56 37.05 36.34 42.64 41.18 41.36
48.97 51.17 50.58 50.58 50.90 51.51 56.53 55.80 56.85 51.75 40.75 43.54 51.67 47.51 47.89 44.21 43.97 44.83 46.81 51.09 51.70 51.10 41.14 31.98 27.02 27.44 33.24 34.65 38.02 41.06 43.22 37.56 29.01 21.96 17.90 17.24 33.68 41.77 44.20 42.38 29.08 42.66 42.08 40.19
50.43 50.91 50.67 50.50 50.73 51.61 56.89 55.38 57.13 55.58 46.91 49.67 50.97 46.50 45.94 49.72 46.94 41.52 45.71 46.29 45.34 46.95 35.97 32.44 27.53 28.73 39.51 31.93 30.64 27.92 28.61 31.75 24.68 21.64 18.96 28.75 40.29 43.33 44.50 28.10 30.65 41.52 41.30 39.72
52.02 51.15 50.56 50.39 50.59 51.43 56.11 54.06 57.06 55.02 47.70 49.80 53.37 53.45 50.02 51.40 49.40 40.34 45.93 41.84 41.94 37.28 32.73 28.16 31.16 31.05 33.31 33.19 38.52 33.05 28.84 26.67 28.85 30.18 24.99 22.43 43.92 43.00 33.68 37.99 42.19 41.39 40.21 40.06
51.80 51.58 50.84 50.78 50.85 51.22 52.52 52.91 56.80 57.58 52.86 50.71 54.16 53.38 53.78 53.72 53.10 49.37 47.46 43.65 46.66 44.60 36.88 35.79 34.39 33.65 34.22 32.61 28.52 40.97 31.76 35.59 31.38 32.36 30.63 39.76 43.15 42.29 43.26 43.53 40.60 40.57 41.04 40.71
51.17 52.69 51.43 50.88 51.11 51.74 53.44 54.81 56.07 54.88 47.31 49.33 50.10 49.14 52.93 55.04 54.76 55.95 46.27 46.01 50.21 48.35 48.11 39.89 39.45 33.18 35.57 28.39 31.36 34.96 39.94 44.01 34.81 36.55 40.75 41.73 42.48 42.56 43.01 42.60 40.32 40.86 41.16 40.64
50.67 51.62 52.08 51.25 50.87 51.31 54.47 54.52 55.74 51.62 46.69 35.89 46.08 53.03 50.95 54.32 55.08 55.12 54.28 52.22 51.49 49.58 44.34 37.27 36.25 32.85 41.92 32.85 35.88 35.10 39.30 42.65 39.42 36.67 40.23 41.49 41.91 41.50 40.73 40.56 40.55 39.65 41.36 40.13
50.16 50.81 51.80 50.54 50.76 50.91 56.11 55.87 55.70 55.45 50.87 38.41 39.94 50.51 51.30 52.76 53.41 53.52 53.77 52.01 49.34 43.14 37.85 34.24 34.55 36.17 37.41 34.67 36.67 33.65 43.25 39.92 32.88 31.73 42.01 40.86 39.66 40.35 40.59 38.46 38.42 39.73 38.42 37.25
49.39 49.81 50.66 50.83 50.70 50.66 55.80 49.87 54.18 53.24 54.94 41.61 37.21 48.20 47.45 49.61 50.63 51.21 50.44 50.84 48.99 46.59 40.19 36.17 41.64 47.12 39.24 32.73 31.05 41.28 44.27 44.61 44.35 42.41 42.01 41.26 40.26 39.87 40.95 41.22 40.69 39.56 37.84 36.63
48.97 49.26 49.69 49.30 49.46 51.31 49.24 46.54 50.04 48.70 52.29 39.87 34.96 39.94 44.56 46.86 48.71 47.25 47.48 47.38 45.90 45.26 39.22 37.15 38.38 40.34 40.64 33.50 32.85 40.40 43.37 44.09 42.79 41.67 40.22 37.11 37.79 38.15 42.37 41.70 41.03 39.18 37.32 36.19
48.57 48.63 48.71 48.08 47.98 49.27 50.17 49.97 50.07 50.13 46.82 42.33 33.70 35.28 36.51 45.98 38.56 37.12 43.48 39.31 42.58 43.12 39.97 38.39 36.74 38.06 35.07 32.94 39.76 42.59 43.81 42.42 41.25 41.19 42.31 41.18 41.25 41.58 41.21 40.96 36.95 35.32 33.80 33.66
48.36 48.69 50.31 50.68 48.46 46.73 48.95 48.13 48.26 51.63 46.93 33.97 34.62 32.67 31.01 43.98 39.58 37.60 38.05 41.39 33.88 39.40 34.06 35.51 38.35 34.22 34.62 38.84 40.71 41.23 40.68 40.05 40.49 42.17 43.02 41.80 40.79 37.38 36.09 35.68 34.84 33.15 32.52 32.58
48.89 50.21 46.33 37.14 42.38 46.88 48.85 47.34 41.83 38.92 37.32 36.78 35.52 38.43 35.77 40.86 35.15 34.24 35.31 34.40 33.33 32.41 34.31 38.61 32.96 33.87 38.56 41.17 41.26 40.54 39.70 41.47 41.48 38.65 36.38 36.10 34.90 34.07 34.15 34.25 34.15 33.13 32.20 32.02
46.19 39.48 35.52 42.24 46.59 44.93 38.95 34.60 34.59 34.96 34.80 35.31 38.41 37.42 37.27 40.85 33.89 33.66 34.75 32.77 32.77 31.08 32.66 33.65 31.94 31.87 36.44 39.42 39.07 40.19 41.25 41.86 41.62 39.61 37.43 36.58 34.86 33.56 33.01 33.07 32.45 30.70 30.18 30.05
43.28 42.52 43.17 41.33 37.92 34.95 35.33 33.68 33.14 33.48 34.12 33.80 34.03 34.75 37.69 35.13 39.72 34.19 32.77 32.71 32.71 29.24 35.64 32.23 29.00 32.90 36.75 37.34 38.15 40.15 41.32 40.00 37.76 37.55 35.34 34.74 34.86 34.30 31.82 30.53 29.99 30.41 29.64 25.35
41.69 37.30 35.16 34.62 32.05 32.41 32.80 32.12 31.82 32.23 32.55 33.78 33.15 32.59 33.30 33.86 35.08 32.41 32.40 31.28 30.76 33.74 31.28 27.34 29.83 36.96 38.18 38.05 37.83 36.12 35.18 33.44 33.39 35.27 35.45 34.86 33.94 32.76 29.73 29.23 30.16 26.30 29.30 30.26
33.65 32.43 30.11 31.46 29.97 30.72 30.15 31.28 32.03 32.96 32.77 32.96 32.94 32.02 32.55 32.22 32.38 32.00 30.48 31.08 31.60 28.69 24.28 22.68 33.51 37.32 38.08 37.86 37.54 35.66 33.06 29.71 31.31 31.39 31.80 30.05 29.77 28.63 27.00 25.83 26.72 23.18 27.44 29.89
32.37 32.74 28.84 29.23 30.92 31.84 32.02 32.55 32.76 33.09 34.18 33.48 32.56 32.37 32.71 31.48 30.35 31.29 29.76 27.38 26.42 28.12 27.96 30.95 34.22 35.62 34.77 34.47 35.03 32.73 30.16 26.23 28.44 31.07 28.35 25.40 24.62 26.81 28.95 29.31 29.43 30.17 27.29 25.76
32.97 32.44 29.98 31.64 31.82 31.49 31.90 31.88 31.88 33.48 33.14 33.50 33.12 31.29 31.28 29.23 30.18 27.77 28.09 27.32 25.87 28.88 31.29 34.05 34.66 34.71 34.48 33.78 32.24 31.34 31.89 30.74 30.56 30.48 30.88 30.37 26.99 25.32 30.03 30.73 28.35 27.11 26.63 25.34
32.46 30.35 33.70 32.77 32.22 31.69 32.08 32.44 32.20 34.66 32.94 31.10 31.66 28.39 26.05 30.00 27.37 26.78 30.92 28.12 30.32 32.19 32.13 33.87 33.38 33.05 32.59 31.72 31.84 29.73 31.20 31.23 31.35 31.37 31.52 31.26 31.58 27.82 27.20 27.83 31.25 30.64 30.73 26.52
MSLP
1012.77 1012.84 1012.64 1012.42 1012.25 1012.19 1012.23 1012.14 1012.74 1011.91 1011.94 1012.73 1012.71 1012.63 1011.38 1010.50 1010.33 1010.00 1009.82 1009.78 1009.81 1010.47 1011.06 1011.94 1012.88 1014.25 1014.79 1014.92 1015.00 1015.45 1015.67 1015.79 1016.14 1016.09 1015.76 1015.47 1015.70 1016.42 1017.57 1019.69 1021.03 1021.90 1021.87 1020.48
1012.75 1012.62 1012.49 1012.33 1012.15 1012.13 1012.09 1012.29 1012.45 1012.08 1012.25 1012.82 1012.89 1011.96 1011.25 1010.60 1010.59 1010.33 1010.25 1010.34 1010.63 1010.93 1011.80 1012.90 1013.80 1015.01 1015.60 1015.61 1015.98 1016.50 1016.59 1016.79 1017.24 1017.25 1016.98 1016.37 1016.38 1016.80 1017.68 1019.01 1020.68 1021.89 1022.28 1020.76
1012.51 1012.49 1012.40 1012.29 1012.05 1011.98 1012.15 1012.38 1012.54 1012.72 1012.65 1012.25 1012.33 1011.92 1011.47 1011.09 1010.78 1010.66 1010.53 1010.87 1011.20 1011.76 1012.49 1013.11 1014.56 1015.59 1016.20 1016.46 1016.76 1016.99 1017.15 1017.41 1018.03 1018.24 1017.95 1017.51 1017.44 1017.58 1017.99 1018.92 1020.54 1021.16 1021.03 1020.05
1012.46 1012.36 1012.37 1012.28 1011.93 1011.90 1012.26 1011.92 1011.87 1011.67 1012.50 1012.36 1012.22 1011.65 1011.43 1011.42 1011.44 1011.21 1011.19 1011.59 1011.92 1012.43 1013.34 1014.15 1015.21 1016.12 1016.80 1017.16 1017.48 1017.57 1017.97 1018.88 1019.19 1019.20 1018.93 1018.57 1018.33 1018.28 1018.55 1019.05 1019.48 1020.09 1020.01 1019.89
1012.42 1012.38 1012.28 1012.18 1011.92 1011.98 1012.29 1011.64 1011.25 1011.12 1011.73 1011.83 1011.71 1011.50 1011.39 1011.36 1011.50 1011.65 1011.84 1012.11 1012.42 1013.03 1014.24 1014.98 1015.50 1016.03 1016.65 1017.28 1017.83 1018.13 1018.75 1020.20 1020.83 1021.04 1020.49 1020.04 1019.45 1018.87 1018.62 1018.59 1018.85 1019.27 1019.68 1020.11
1012.42 1012.35 1012.17 1012.08 1011.84 1011.72 1011.74 1010.96 1010.49 1011.08 1012.03 1012.19 1012.00 1011.62 1011.16 1011.17 1011.48 1012.10 1012.16 1012.49 1013.65 1014.40 1015.41 1015.56 1016.16 1016.37 1016.76 1017.29 1018.04 1018.95 1020.15 1021.64 1022.81 1023.03 1022.37 1021.40 1020.51 1019.18 1018.67 1018.63 1018.98 1019.23 1019.96 1020.69
1012.54 1012.41 1012.11 1011.84 1011.67 1011.38 1011.31 1011.15 1011.17 1012.35 1013.19 1012.49 1011.90 1011.54 1011.41 1011.83 1011.95 1012.72 1013.37 1013.21 1013.91 1015.52 1015.70 1016.19 1017.02 1017.71 1018.07 1018.30 1018.91 1019.43 1021.15 1022.77 1024.12 1025.08 1024.13 1022.97 1020.18 1018.64 1018.54 1018.90 1019.53 1019.92 1020.88 1021.48
1012.64 1012.40 1012.00 1011.64 1011.43 1011.10 1010.98 1011.08 1011.56 1013.01 1013.68 1012.78 1012.03 1011.61 1012.16 1012.55 1013.02 1014.05 1014.48 1014.73 1014.72 1015.43 1016.69 1018.80 1020.17 1021.01 1020.50 1020.21 1020.37 1020.72 1021.34 1023.36 1025.59 1026.20 1025.52 1023.12 1020.30 1019.13 1018.91 1019.30 1020.77 1021.07 1021.61 1022.28
1012.76 1012.44 1011.98 1011.70 1011.39 1010.94 1010.95 1011.74 1011.76 1012.39 1013.23 1013.22 1012.18 1011.98 1012.21 1013.49 1014.23 1015.33 1015.87 1015.88 1015.83 1016.49 1018.98 1021.02 1022.10 1022.02 1021.27 1021.37 1021.65 1022.13 1022.68 1023.67 1025.20 1026.51 1026.24 1024.07 1020.96 1019.70 1019.24 1019.57 1021.10 1021.81 1022.18 1022.84
1012.83 1012.55 1012.12 1011.86 1011.62 1011.24 1011.17 1011.90 1011.72 1012.09 1013.22 1013.00 1012.47 1012.52 1012.61 1013.34 1014.46 1015.90 1016.57 1016.93 1017.25 1018.13 1021.06 1022.90 1023.53 1022.60 1021.31 1021.61 1022.15 1022.98 1023.82 1024.72 1025.71 1025.94 1025.52 1023.16 1020.49 1019.64 1019.43 1020.84 1021.97 1022.23 1022.62 1023.22
1012.84 1012.70 1012.35 1012.05 1011.85 1011.56 1011.38 1012.12 1011.69 1012.05 1013.41 1013.59 1013.26 1013.02 1013.10 1013.37 1014.41 1015.84 1016.59 1017.64 1018.20 1019.80 1021.82 1023.10 1023.60 1023.13 1021.95 1021.62 1021.51 1021.99 1022.96 1024.21 1024.90 1025.12 1024.50 1022.17 1019.90 1020.06 1020.57 1021.21 1021.77 1022.33 1022.71 1023.11
1012.98 1012.84 1012.58 1012.29 1012.07 1011.81 1011.54 1012.26 1011.77 1011.84 1013.19 1014.23 1013.93 1014.04 1013.88 1014.04 1014.43 1014.83 1015.94 1016.80 1017.62 1018.82 1021.11 1022.60 1023.00 1023.07 1022.58 1022.38 1021.59 1020.68 1021.52 1021.11 1021.88 1022.63 1021.63 1020.01 1019.63 1019.95 1020.54 1020.78 1021.86 1022.47 1022.79 1023.24
1013.13 1013.05 1012.84 1012.57 1012.30 1011.94 1011.76 1012.31 1012.46 1012.62 1014.09 1014.65 1014.45 1014.62 1014.57 1014.15 1014.24 1014.24 1015.35 1016.41 1016.70 1018.09 1018.90 1021.44 1022.66 1023.15 1022.66 1022.39 1021.40 1020.25 1019.38 1019.42 1020.16 1020.63 1020.01 1020.00 1020.28 1020.77 1021.08 1021.45 1021.99 1022.32 1022.56 1022.86
1013.30 1013.32 1013.17 1012.93 1012.69 1012.35 1011.92 1012.73 1012.98 1013.52 1015.09 1015.78 1015.64 1014.87 1015.02 1014.86 1014.54 1014.57 1014.84 1015.71 1016.59 1018.01 1019.55 1021.44 1022.28 1022.44 1021.47 1021.50 1020.46 1020.14 1019.20 1018.81 1019.09 1019.73 1020.13 1020.77 1021.31 1021.46 1021.81 1022.00 1022.22 1022.47 1022.59 1022.75
1013.47 1013.58 1013.47 1013.32 1013.04 1012.81 1012.56 1013.02 1013.45 1013.52 1014.33 1015.96 1016.07 1015.50 1015.60 1015.29 1015.19 1015.30 1015.55 1016.22 1017.30 1018.95 1020.65 1021.71 1021.93 1021.27 1020.95 1020.67 1020.43 1019.98 1018.49 1018.29 1019.03 1019.23 1019.44 1019.91 1020.98 1021.67 1021.95 1022.14 1022.30 1022.40 1022.52 1022.75
1013.73 1013.80 1013.75 1013.59 1013.27 1013.09 1013.24 1014.10 1014.18 1014.21 1014.01 1016.01 1017.19 1016.67 1016.36 1016.02 1015.82 1016.02 1016.70 1017.09 1017.95 1018.90 1020.46 1021.22 1020.96 1019.83 1020.05 1020.83 1020.52 1018.76 1017.99 1017.82 1017.94 1019.01 1019.71 1020.19 1021.00 1021.77 1021.89 1021.93 1022.04 1022.18 1022.48 1022.72
1014.01 1014.13 1014.11 1013.97 1013.64 1013.62 1014.55 1015.26 1015.40 1014.94 1014.79 1016.63 1018.22 1017.97 1017.51 1017.04 1016.84 1017.53 1018.07 1018.27 1018.83 1019.36 1020.12 1020.76 1021.05 1020.37 1020.09 1020.42 1019.90 1018.35 1017.97 1018.07 1018.63 1019.32 1019.94 1021.02 1021.37 1021.56 1021.67 1021.76 1021.92 1022.16 1022.51 1022.97
1014.23 1014.41 1014.49 1014.45 1014.49 1014.86 1015.26 1015.31 1015.12 1015.05 1015.93 1017.31 1019.00 1019.28 1018.67 1018.13 1018.65 1019.37 1019.45 1019.75 1019.80 1020.04 1020.61 1020.97 1021.03 1020.66 1020.50 1019.91 1018.19 1017.78 1017.79 1018.41 1019.09 1019.53 1019.87 1020.41 1020.98 1021.46 1021.72 1021.96 1022.18 1022.51 1023.05 1023.49
1014.51 1014.70 1014.69 1014.72 1015.16 1015.89 1016.17 1015.82 1015.61 1015.45 1016.61 1018.49 1019.54 1019.57 1019.46 1018.93 1019.91 1020.32 1020.55 1020.59 1021.17 1021.29 1021.14 1021.22 1021.16 1020.89 1020.21 1018.49 1018.04 1017.76 1017.90 1018.24 1018.94 1019.62 1020.05 1020.57 1021.04 1021.62 1021.95 1022.18 1022.63 1023.19 1023.76 1024.08
1014.72 1015.05 1015.56 1016.60 1016.87 1016.73 1016.24 1016.20 1016.39 1016.74 1017.77 1018.56 1019.40 1019.23 1019.64 1019.52 1020.44 1021.08 1021.60 1021.56 1021.77 1021.70 1021.38 1021.31 1020.89 1019.92 1018.86 1018.22 1017.95 1017.84 1018.27 1018.58 1019.07 1019.68 1020.38 1020.85 1021.40 1022.04 1022.49 1022.92 1023.42 1023.84 1024.21 1024.46
1015.11 1016.07 1016.92 1017.36 1017.07 1016.95 1017.46 1017.88 1018.32 1018.56 1019.08 1019.10 1019.19 1019.12 1019.51 1019.68 1020.50 1021.19 1021.54 1021.78 1021.86 1021.69 1021.22 1021.24 1020.53 1019.66 1018.67 1018.25 1018.42 1018.61 1018.80 1019.16 1019.96 1020.48 1020.92 1021.39 1021.93 1022.59 1023.15 1023.60 1023.96 1024.23 1024.47 1024.74
1015.80 1016.25 1017.30 1017.50 1017.89 1018.36 1018.52 1018.64 1019.09 1019.13 1019.37 1019.63 1019.60 1019.80 1019.88 1020.30 1020.17 1020.94 1021.64 1021.61 1021.75 1021.27 1021.00 1021.07 1020.04 1019.27 1018.85 1018.92 1019.20 1019.40 1019.59 1019.95 1020.45 1021.00 1021.67 1022.18 1022.68 1023.18 1023.68 1024.03 1024.31 1024.60 1024.68 1024.68
1016.29 1016.93 1017.97 1018.42 1019.44 1019.25 1018.87 1018.87 1019.08 1019.35 1019.62 1019.96 1020.12 1020.48 1020.55 1020.72 1020.82 1021.03 1021.33 1021.40 1021.18 1020.88 1021.02 1020.46 1019.78 1019.41 1019.36 1019.51 1019.78 1020.31 1020.65 1020.93 1021.40 1021.93 1022.34 1022.77 1023.18 1023.50 1024.03 1024.37 1024.46 1024.57 1024.59 1024.41
1017.81 1018.56 1019.06 1019.28 1019.64 1019.66 1019.68 1019.70 1019.77 1019.96 1020.05 1020.19 1020.37 1020.72 1020.90 1020.99 1020.99 1020.94 1020.97 1020.99 1020.97 1020.97 1020.87 1020.63 1020.07 1020.02 1020.07 1020.10 1020.41 1020.96 1021.64 1021.90 1022.19 1022.54 1022.85 1023.18 1023.49 1023.80 1024.13 1024.16 1024.04 1024.32 1024.29 1024.02
1018.84 1019.09 1019.52 1019.86 1020.20 1020.19 1020.28 1020.37 1020.48 1020.54 1020.49 1020.67 1020.82 1020.99 1021.08 1021.13 1021.12 1020.96 1021.12 1021.24 1020.96 1020.88 1020.92 1020.93 1020.78 1020.61 1020.62 1021.03 1021.41 1021.88 1022.46 1022.71 1022.88 1022.97 1023.20 1023.42 1023.61 1023.77 1023.82 1023.62 1023.61 1023.63 1023.60 1023.63
1019.41 1019.79 1020.11 1020.23 1020.29 1020.52 1020.55 1020.77 1020.97 1021.06 1021.03 1021.04 1021.04 1021.10 1021.17 1021.40 1021.28 1021.21 1021.00 1021.04 1021.11 1021.57 1021.68 1021.47 1021.23 1021.11 1021.24 1021.62 1022.02 1022.29 1022.52 1022.82 1022.96 1023.06 1023.21 1023.32 1023.33 1023.38 1023.31 1023.12 1023.03 1022.99 1023.01 1023.10
1019.98 1020.42 1020.21 1020.33 1020.58 1020.86 1021.09 1021.16 1021.33 1021.19 1021.35 1021.46 1021.30 1021.38 1021.77 1021.70 1021.52 1021.46 1021.33 1021.62 1021.92 1021.84 1021.67 1021.48 1021.42 1021.53 1021.75 1021.97 1022.24 1022.51 1022.69 1022.76 1022.76 1022.84 1022.90 1022.94 1022.80 1022.78 1023.04 1022.94 1022.48 1022.37 1022.24 1022.17
Wind_Speed
3 5 7 6 4 1 2 1 1 3 3 4 3 2 5 1 3 2 3 3 5 3 4 5 5 5 4 5 5 3 3 3 3 4 3 3 1 3 4 6 5 1 5 6
3 5 6 6 3 2 2 3 3 2 4 3 2 6 2 1 5 4 0 5 6 5 4 6 9 5 6 8 5 1 3 2 3 4 5 5 1 2 2 4 4 5 6 7
3 6 7 6 2 1 2 1 3 2 1 2 4 5 4 2 6 3 4 5 4 1 5 5 5 4 3 5 3 3 3 3 6 7 3 1 2 5 4 2 4 4 6 7
3 6 7 6 1 2 3 2 5 8 4 5 5 5 8 6 2 1 2 1 3 4 3 5 5 6 4 2 1 2 3 3 5 5 6 4 3 5 7 5 6 3 7 3
3 6 8 6 2 5 2 2 3 1 4 5 3 6 5 9 8 7 4 3 6 8 5 3 7 9 5 4 4 2 4 1 3 3 7 7 4 8 8 5 2 3 4 4
3 7 9 6 4 2 2 3 2 5 3 3 3 4 2 3 8 3 3 4 12 14 6 8 7 8 6 6 6 3 3 4 3 4 5 6 5 4 4 3 5 3 3 4
3 7 7 7 5 1 2 1 3 6 3 1 4 7 4 7 6 6 6 9 9 4 5 7 10 12 11 8 7 5 5 4 3 2 5 3 5 5 7 5 7 7 10 11
3 6 6 8 5 4 2 2 4 5 1 1 3 5 8 12 12 8 12 9 4 7 7 6 6 7 7 4 9 6 5 5 4 3 1 6 7 3 3 4 2 6 7 7
3 6 7 8 9 12 4 2 1 5 7 4 6 3 8 6 4 5 4 6 6 7 5 5 5 5 6 4 3 8 8 6 6 3 5 7 7 4 3 1 3 3 7 6
2 5 8 9 9 11 3 1 3 3 4 4 5 3 5 6 6 5 4 1 3 7 4 3 3 4 1 6 8 4 3 1 4 3 3 8 9 0 3 5 7 6 6 3
3 6 8 9 10 10 4 1 2 4 4 4 7 8 6 4 5 6 5 6 6 4 5 4 4 3 5 2 7 8 8 8 4 3 2 9 6 3 7 5 4 6 4 4
4 6 8 9 10 10 4 3 2 3 6 3 3 4 5 6 3 5 3 7 4 5 5 2 2 1 1 1 3 4 2 9 8 10 9 7 3 5 4 7 7 4 4 5
5 6 8 10 11 13 6 3 3 5 4 4 4 4 5 8 5 1 6 3 5 4 4 5 3 3 4 4 6 1 4 6 3 5 6 5 9 7 6 6 6 6 5 5
5 6 9 10 12 14 8 4 3 5 5 6 3 3 5 5 6 6 3 5 7 6 4 4 3 3 5 5 5 5 6 3 1 2 5 9 4 5 6 5 5 5 5 5
6 6 8 9 11 12 4 4 4 3 5 5 2 3 3 5 5 6 7 7 5 4 4 3 4 3 3 2 3 3 3 6 4 7 4 4 5 7 6 6 6 5 4 2
6 7 7 9 10 8 3 4 4 5 3 6 3 1 4 4 3 3 8 4 4 3 4 3 3 4 5 3 4 6 6 2 3 5 5 7 8 7 5 6 5 4 4 2
7 7 7 9 9 5 4 4 2 6 2 5 3 1 4 4 3 4 4 5 2 3 3 1 3 3 4 3 5 5 5 8 11 11 9 5 3 4 6 4 4 5 6 6
8 7 6 8 13 9 4 3 5 5 6 5 5 2 4 4 2 3 3 2 3 4 2 2 2 4 3 5 6 7 5 12 9 7 5 5 6 6 8 5 5 6 6 5
9 7 5 5 5 3 1 9 8 3 5 5 3 6 4 2 2 2 4 2 2 2 1 1 3 2 7 6 4 4 10 7 10 7 6 10 7 5 6 7 7 5 4 4
10 3 3 2 2 9 7 5 5 6 4 3 3 3 2 4 1 1 3 2 2 1 4 2 2 4 5 7 4 8 8 9 8 7 5 6 6 6 6 5 5 4 1 3
2 3 2 2 6 2 4 2 3 1 1 1 2 3 5 1 4 3 1 3 2 3 3 3 3 3 4 6 8 7 9 9 9 7 9 9 7 6 5 4 3 2 4 3
4 6 4 3 4 4 4 3 1 2 3 1 2 1 3 1 2 3 1 3 2 5 4 2 3 1 6 8 7 7 7 7 11 10 9 8 7 6 4 2 4 4 4 5
3 5 4 3 2 3 6 8 2 2 2 2 1 2 2 1 2 3 3 5 5 1 3 4 2 4 5 7 6 9 9 10 9 8 6 5 2 1 1 4 5 5 6 6
5 3 4 1 2 2 2 1 2 1 2 3 3 2 2 0 2 2 4 2 2 3 2 4 1 7 7 6 5 8 5 6 7 4 2 3 4 4 4 5 5 4 5 7
4 1 3 2 1 1 1 1 1 3 1 2 2 2 1 1 2 0 3 2 2 1 1 2 2 3 8 7 6 7 5 3 1 1 1 4 5 5 6 5 6 6 6 6
3 3 3 1 2 2 2 2 2 2 2 1 2 2 2 2 1 1 1 3 2 3 1 2 3 4 5 6 6 5 4 2 3 4 4 5 4 5 6 4 5 6 6 7
2 2 2 2 4 3 1 1 1 1 1 2 1 3 2 1 1 2 3 3 2 3 2 1 4 5 5 5 4 1 3 4 5 4 5 5 5 4 3 6 8 6 7 6
Wind_Direction
21 347 353 355 345 181 112 157 90 248 88 77 191 224 267 243 91 311 353 359 40 118 81 66 80 103 69 335 339 54 12 124 86 119 96 41 349 68 78 109 295 63 137 275
12 351 357 4 359 162 121 168 142 296 86 139 252 279 82 12 148 229 177 35 49 24 85 83 101 86 21 6 49 97 351 6 60 19 5 332 283 123 143 128 89 181 129 259
357 351 353 354 6 142 86 17 93 358 53 235 202 210 139 98 24 27 47 111 72 35 71 78 121 103 78 52 57 336 38 53 139 174 175 130 346 334 350 89 114 217 217 243
352 348 343 343 40 161 105 238 211 171 201 283 254 175 167 153 140 310 87 75 205 136 120 119 107 99 120 128 131 311 74 106 30 4 351 335 344 340 331 308 260 183 260 220
354 344 335 343 62 136 115 258 62 57 180 202 253 162 210 165 187 143 226 177 217 113 74 69 165 143 169 169 222 173 34 101 58 319 23 19 322 301 275 251 352 8 41 2
350 341 337 359 19 179 198 274 302 102 326 190 108 213 222 204 116 31 261 143 88 75 93 83 55 81 54 110 133 106 84 106 75 268 356 347 10 236 315 322 9 326 37 32
350 343 346 6 7 22 161 268 83 76 285 84 187 157 214 134 114 104 358 74 94 128 85 50 24 29 29 55 52 94 114 87 89 221 3 25 234 288 96 88 30 11 76 67
351 343 3 360 349 333 107 15 87 113 209 255 305 135 109 72 74 68 58 15 95 133 43 61 42 356 22 360 35 36 128 115 75 110 213 297 329 27 80 103 85 53 88 76
355 358 5 5 4 3 77 65 294 104 117 291 315 131 135 129 102 50 39 6 2 69 71 74 137 194 201 162 104 30 54 87 108 77 133 209 219 117 72 336 241 62 94 69
17 18 14 15 10 8 75 56 33 92 103 341 20 110 146 122 95 102 108 114 31 66 84 97 156 251 237 163 165 188 56 13 161 182 210 281 248 106 87 106 231 121 116 124
49 30 19 15 12 10 46 227 355 101 92 4 19 15 47 66 97 132 199 55 338 57 81 128 211 182 248 116 161 174 161 151 189 190 234 278 188 69 148 189 77 114 119 149
60 33 20 13 10 6 1 63 322 36 83 156 66 96 49 64 65 132 138 170 152 164 95 168 145 199 356 121 239 179 146 183 178 178 212 221 163 139 105 124 142 141 125 118
66 33 21 14 15 7 32 101 351 50 76 1 45 37 19 21 10 4 122 324 164 107 136 141 152 198 135 168 241 332 308 170 193 104 256 142 112 93 95 116 131 164 151 162
85 41 26 17 14 7 25 82 326 78 86 107 292 297 49 341 356 44 62 120 53 86 73 113 144 175 177 207 218 160 212 343 219 280 103 85 76 115 148 129 122 147 173 217
99 57 31 17 12 4 45 73 31 45 117 158 240 80 15 7 351 77 76 90 94 88 76 94 209 233 69 313 63 254 195 200 157 228 214 143 156 162 151 147 173 198 180 53
96 61 37 16 360 355 55 40 359 7 30 90 74 283 20 356 322 96 58 45 63 96 127 202 259 275 117 142 211 256 240 264 160 157 80 80 122 150 166 159 199 165 110 35
93 72 46 24 5 56 78 160 260 329 39 82 42 324 337 324 341 32 32 26 50 109 162 166 182 287 102 132 212 236 238 129 116 114 106 73 167 180 176 213 222 124 73 71
104 95 73 73 82 105 55 349 342 337 82 68 111 242 11 350 13 43 352 32 12 12 114 6 142 340 69 247 244 239 218 117 122 129 100 139 143 148 189 206 87 62 54 46
118 106 51 31 28 52 28 325 325 39 99 125 131 152 209 63 55 75 15 59 65 337 138 223 94 216 226 243 243 240 146 155 150 153 146 137 150 113 81 65 47 53 44 34
129 62 60 16 333 315 313 17 25 21 350 58 162 185 151 104 72 10 113 23 191 197 241 104 186 250 288 272 336 125 116 116 123 119 116 96 84 77 63 54 72 77 20 329
64 73 101 262 302 38 32 55 90 308 338 167 202 178 144 286 123 168 181 175 168 229 217 194 233 252 242 100 81 100 104 99 108 104 88 83 86 72 60 36 58 8 325 289
99 108 94 37 36 35 116 187 36 164 216 20 139 49 87 14 61 112 222 162 158 240 137 187 249 244 102 97 98 103 117 122 92 81 75 66 64 79 67 352 308 292 281 285
51 52 70 64 25 191 198 191 220 162 139 177 153 67 101 36 57 88 137 184 212 92 175 227 246 138 129 126 114 88 81 82 80 73 65 58 43 14 225 270 273 262 279 280
64 81 97 32 135 52 48 15 50 319 109 106 88 82 112 97 95 125 170 179 109 213 210 231 113 121 147 125 111 119 109 103 104 89 347 300 245 248 253 232 243 235 268 273
83 56 87 88 138 87 51 291 58 352 65 61 57 64 85 80 109 194 104 144 208 239 93 29 307 90 99 105 108 109 120 106 74 319 279 250 247 235 260 265 262 257 260 263
70 66 110 108 111 70 60 58 69 12 25 29 62 97 98 53 48 193 215 172 78 63 278 219 135 106 104 96 103 111 111 156 249 272 266 266 259 254 263 262 262 263 254 265
76 70 60 69 64 89 99 123 181 238 72 63 43 61 69 269 39 44 13 45 167 212 260 99 104 119 119 115 93 50 302 291 285 276 280 273 269 274 295 296 289 268 260 250